Torna al catalogo

STSS DEMO 2

USA 209

AttivoMilitareLEO
NORAD 35938·PAYLOAD·🇺🇸 United States

Lanciato Sep 25, 2009 da Cape Canaveral Space Force Station

Loading…

Prossimi Passaggi (prossime 24 ore)

TLE

In scadenzaSource: Mike McCants

Epoca: Sep 10, 2026, 01:23 UTC

1 35938U 09052B   26253.05767546 0.00000000  00000-0  00000-0 0    05
2 35938  57.9843 305.1425 0018250 301.1143  58.8857 12.74869627    08

Traccia STSS DEMO 2 in tempo reale con AllMySat

Download on the App Store